Tracking 27107 objects as of 20-Mar-2023
HD Live streaming from Space Station
objects crossing your sky now

COSMOS 1709

Track COSMOS 1709 now!
10-day predictions
COSMOS 1709 is classified as:


NORAD ID: 16368
Int'l Code: 1985-116A
Perigee: 964.8 km
Apogee: 1,016.1 km
Inclination: 82.9 °
Period: 104.8 minutes
Semi major axis: 7361 km
RCS: 2.2148 m2 (large)
Launch date: December 19, 1985
Source: Commonwealth of Independent States (former USSR) (CIS)
Launch site: PLESETSK MISSILE AND SPACE COMPLEX (PKMTR)
Your satellite tracking list
Your tracking list is empty




NASA's NSSDC Master Catalog

Two Line Element Set (TLE):
1 16368U 85116A   23079.02416463  .00000090  00000-0  79075-4 0  9993
2 16368  82.9412 270.1745 0034796 186.5694 329.7993 13.74541071868283
Source of the keplerian elements: AFSPC